Artvin

Turkey     41˚10′54″N   41˚49′19″E
temp.,
°C
wind,
m/s
gust,
m/s
humid.,
%
clouds,
%
prec.,
mm/h
press.,
hPa
HPBL,
m
29 november, sun
sun2900:00+2˚sse34526 0.0 102687
03:00+1˚sse34543 0.0 102680
06:00+1˚sse34541 0.0 102579
09:00+4˚se35470 0.0 1025199
12:00+9˚se23380 0.0 1022406
15:00+9˚ese01432 0.0 1021282
18:00+4˚s125978 0.0 102322
21:00+3˚sse126441 0.0 102326
30 november, mon
mon3000:00+3˚sse23630 0.0 102341
03:00+2˚sse33620 0.0 102356
06:00+2˚sse33630 0.0 102266
09:00+4˚se34560 0.0 1022189
12:00+9˚se34420 0.0 1019518
15:00+10˚se23430 0.0 1018456
18:00+5˚sse23570 0.0 101943
21:00+3˚sse33590 0.0 102064
1 december, tue
tue100:00+3˚sse34602 0.0 102086
03:00+2˚se34603 0.0 102090
06:00+1˚se346042 0.0 102093
09:00+3˚se355361 0.0 1021228
12:00+8˚se354398 0.0 1019538
15:00+8˚se244699 0.0 1019429
18:00+4˚sse3360100 0.0 102069
21:00+3˚se3462100 0.0 102289
2 december, wed
wed200:00+3˚se3463100 0.0 102297
03:00+2˚se346687 0.0 102296
06:00+2˚se346655 0.0 1023105
09:00+4˚se356049 0.0 1023232
12:00+9˚se344822 0.0 1021532
15:00+10˚se234912 0.0 1020522
18:00+5˚sse236520 0.0 102236
21:00+4˚sse236720 0.0 102350
3 december, thu
thu300:00+3˚sse23680 0.0 102458
03:00+3˚sse33680 0.0 102461
06:00+2˚sse33680 0.0 102466
09:00+5˚se34600 0.0 1025189
12:00+10˚se34470 0.0 1023524
15:00+10˚se23460 0.0 1022520
18:00+5˚sse23610 0.0 102432
21:00+4˚sse23620 0.0 102451